Location: Les Martinières
(47.2667°N, 1.4410°E)
Time: 11:46:36
(UTC+00:00)

Spot 2 Rocket - Pass Details

Date: 15 May 2026
Orbit: 752 x 765 km, 98.3° (Epoch: 9 June)

Event Time Altitude Azimuth Distance (km) Brightness Sun altitude
Exits shadow 21:03:02 10° 183° (S) 2,241 5.5 -13.8°
Maximum altitude 21:07:50 54° 260° (W) 919 4.1 -14.3°
Drops below altitude 10° 21:12:47 10° 338° (NNW) 2,293 7.2 -14.8°
Sets 21:15:09 0° 343° (NNW) 3,225 8.1 -15.1°
